Tracking 19792 objects as of 16-Jul-2019
HD Live streaming from Space Station
objects crossing your sky now

FLOCK 2K 11

Track FLOCK 2K 11 now!
10-day predictions
FLOCK 2K 11 is classified as:


NORAD ID: 42894
Int'l Code: 2017-042BX
Perigee: 446.6 km
Apogee: 464.7 km
Inclination: 96.9 °
Period: 93.6 minutes
Semi major axis: 6826 km
RCS: Unknown
Launch date: July 14, 2017
Source: United States (US)
Launch site: TYURATAM MISSILE AND SPACE COMPLEX (TTMTR)
aabbcc
Your satellite tracking list
Your tracking list is empty




NASA's NSSDC Master Catalog

Two Line Element Set (TLE):
1 42894U 17042BX  19196.74993705 +.00001821 +00000-0 +48697-4 0  9991
2 42894 096.9375 078.1325 0013294 104.9051 255.3669 15.39189498112134
Source of the keplerian elements: AFSPC